Other Public Products
Issued by NWS Grand Forks, ND

Home | Current Version | Previous Version | Text Only | Print | Product List | Glossary On
Versions: 1 2 3 4 5 6 7 8 9 10 11 12 13 14 15 16 17 18 19 20 21 22 23 24 25 26 27 28 29 30 31 32 33 34 35 36 37 38 39 40 41 42 43 44 45 46 47 48 49 50
000
FPUS83 KFGF 251310
OPUFGF
PRAIRIE TO PINES WEATHER ROUNDUP
NATIONAL WEATHER SERVICE EASTERN NORTH DAKOTA/GRAND FORKS ND
800 AM CDT SAT APR 25 2015

 **SATELLITE DATA USED TO AUGMENT SKY COVER AT AUTOMATED STATIONS**
 *****  WEATHER ACROSS EASTERN NORTH DAKOTA  *****

CITY           SKY/WX    TMP DP  RH WIND       PRES   REMARKS
GRAND FORKS    CLOUDY    44  32  62 E10       29.87R
GRAND FORKS AF CLOUDY    43  32  65 SE9       29.87R
GRAND CITY NWS   N/A     41 N/A N/A E13         N/A
BUXTON         NOT AVBL
DEVILS LAKE    CLOUDY    43  34  70 E8        29.85R
FARGO          CLOUDY    44  37  76 E7        29.84S
WAHPETON ARPT  CLOUDY    43  37  81 E9        29.83R
$$

 *****  WEATHER ACROSS CENTRAL AND WESTERN NORTH DAKOTA  *****

CITY           SKY/WX    TMP DP  RH WIND       PRES   REMARKS
JAMESTOWN      CLOUDY    41  38  89 E9        29.81R FOG
BISMARCK       CLOUDY    44  41  89 E14       29.78R
MINOT          CLOUDY    38  36  92 CALM      29.81R FOG
MINOT AFB      CLOUDY    38  38 100 SE6       29.80R FOG
GARRISON         N/A     43  41  93 SE12      29.77S
WILLISTON      CLOUDY    46  41  82 SE12      29.73S
DICKINSON      FOG       42  40  92 SE15      29.71R VSB 1/4
HETTINGER      FOG       41  40  96 E13       29.72F VSB 1/4
$$

 *****  OTHER OBSERVATIONS NORTHEAST NORTH DAKOTA  *****

CITY           SKY/WX    TMP DP  RH WIND       PRES   REMARKS
WALHALLA       CLOUDY    32  32 100 NW3       29.92R
LANGDON        CLOUDY    39  32  75 E8        29.88R
CAVALIER       CLOUDY    37  32  81 N5        29.91R
GRAFTON        CLOUDY    43  34  70 E9        29.90R
CANDO          CLOUDY    41  36  81 E12       29.86S
FORT TOTTEN    NOT AVBL
ROLLA          CLOUDY    37  37 100 E7        29.86R
RUGBY          NOT AVBL
 ***** THE ABOVE OBSERVATIONS ARE NON NWS ARE NOT QUALITY
        CONTROLLED AND MAY MIS-REPORT RAIN FOR SNOW...
$$

 *****  OTHER OBSERVATIONS SOUTHEAST NORTH DAKOTA *****

CITY           SKY/WX    TMP DP  RH WIND       PRES   REMARKS
COOPERSTOWN    NOT AVBL
VALLEY CITY    CLOUDY    39  39 100 E12       29.82S
OAKES          MIX PCPN  41  41 100 NE14      29.79R VSB 1
GWINNER        CLOUDY    43  43 100 E15       29.80S VSB 3/4
BUFFALO        NOT AVBL
WYNDMERE       NOT AVBL
 ***** THE ABOVE OBSERVATIONS ARE NON NWS ARE NOT QUALITY
       CONTROLLED AND MAY MIS-REPORT RAIN FOR SNOW...
$$

  *****  WEATHER ACROSS NORTHERN MINNESOTA  *****

CITY           SKY/WX    TMP DP  RH WIND       PRES   REMARKS
FLAG ISLAND    CLOUDY    39  25  56 E7        29.96R
WARROAD        CLOUDY    37  28  70 E6        29.95R
ROSEAU         CLOUDY    41  27  56 E8        29.93R
HALLOCK        CLOUDY    43  30  61 E10       29.90S
THF RVR FALLS  PTSUNNY   41  27  56 E13       29.89S
HALSTAD        NOT AVBL
FOSSTON        CLOUDY    39  27  60 E8        29.88R
BAUDETTE       MOSUNNY   39  21  48 E12       29.94S
WASKISH        CLOUDY    37  23  56 E7        29.93S
CROOKSTON      CLOUDY    43  30  61 E9        29.89R
$$
  *****  WEATHER ACROSS CENTRAL AND WEST MINNESOTA  *****

CITY           SKY/WX    TMP DP  RH WIND       PRES   REMARKS
BEMIDJI        CLOUDY    39  27  63 E13       29.89R
PARK RAPIDS    PTSUNNY   40  30  67 E10       29.86R
WADENA         PTSUNNY   39  32  75 E10       29.84S
DETROIT LAKES  CLOUDY    41  34  75 E10G18    29.85S
MOORHEAD       CLOUDY    43  36  75 E9        29.85S
FERGUS FALLS   CLOUDY    43  36  75 E7        29.84R
ELBOW LAKE     CLOUDY    41  39  94 E14G20    29.81S
MORRIS MN      PTSUNNY   43  41  93 E14       29.79R FOG
STAPLES        CLOUDY    39  32  75 E7        29.85S
WHEATON        CLOUDY    39  39 100 E10       29.82R FOG
$$
  *****  WEATHER ELSEWHERE ACROSS MINNESOTA  *****

CITY           SKY/WX    TMP DP  RH WIND       PRES   REMARKS
DULUTH         CLOUDY    34  24  67 E10       29.93S
INTRNTL FALLS  CLOUDY    38  18  44 E7        29.97S
ELY            CLOUDY    36   7  30 E8        29.99R
CLOQUET        CLOUDY    36  27  69 E7        29.93R
BRAINERD       CLOUDY    39  31  72 E8        29.88R
HIBBING        CLOUDY    38  20  48 SE7       29.94R
ALEXANDRIA     CLOUDY    40  37  89 E14       29.82R
SAINT CLOUD    CLOUDY    43  36  76 E12G18    29.84R
MINNEAPOLIS    CLOUDY    43  37  79 E10       29.83R
$$

  *****  WEATHER ACROSS SOUTH DAKOTA  *****

CITY           SKY/WX    TMP DP  RH WIND       PRES   REMARKS
SIOUX FALLS    CLOUDY    45  41  86 E16       29.69R
BROOKINGS      CLOUDY    43  39  87 E15       29.73R
WATERTOWN      CLOUDY    42  40  92 E10G20    29.73R FOG
HURON          CLOUDY    47  44  90 NE12      29.71R FOG
SISSETON         N/A     43  43 100 SE12      29.78R
ABERDEEN       CLOUDY    44  42  93 E16       29.76R FOG
MITCHELL       CLOUDY    48  46  93 E8        29.70R FOG
PIERRE         FOG       45  44  97 NE18      29.69R VSB 1
MOBRIDGE       CLOUDY    45  43  93 E15       29.72R FOG
RAPID CITY     CLOUDY    42  41  96 NE3       29.70S FOG
$$

  *****  SOME WEATHER IN NEARBY STATES *****

CITY           SKY/WX    TMP DP  RH WIND       PRES   REMARKS
GLASGOW MT     CLOUDY    48  38  68 NW20      29.63R
GREAT FALLS MT CLOUDY    37  34  89 SW13      29.77S
CHEYENNE WY    CLEAR     40  30  67 NW5       29.75R
SCOTTSBLUFF NE SUNNY     42  32  67 NW3       29.70R
OMAHA NE       LGT RAIN  50  47  89 N9        29.55R
DES MOINES IA  LGT RAIN  45  42  89 NE17      29.60R FOG
DAVENPORT IA   LGT RAIN  43  40  89 E15       29.68F FOG
CHICAGO IL     LGT RAIN  44  38  79 E12G18    29.80R
EAU CLAIRE WI  CLOUDY    41  27  57 E12       29.87S
LA CROSSE WI   CLOUDY    42  36  79 NE7       29.83S
$$

  *****  SOME NATIONAL WEATHER *****

CITY           SKY/WX    TMP DP  RH WIND       PRES   REMARKS
LA GUARDIA NY  MOSUNNY   42  23  46 NW13      29.88F
RALEIGH NC     CLOUDY    53  44  71 CALM      29.93R
ATLANTA GA     LGT RAIN  60  57  89 SE9G16    29.85F FOG
NEW ORLEANS LA MOSUNNY   77  73  87 SW12      29.82F FOG
OKLAHOMA CITY  SUNNY     55  48  77 S3        29.64R
ALBUQUERQUE NM PTCLDY    42  35  76 SE8       29.97S
SALT LAKE CITY MOCLDY    43  38  82 CALM      29.81F
LOS ANGELES CA MOCLDY    57  51  80 CALM      29.98S
BOISE ID       CLOUDY    42  34  73 CALM      29.80S
SEATTLE WA     LGT RAIN  42  38  85 E6        29.92S
$$

*** WEATHER ACROSS MANITOBA...SASKATCHEWAN AND ONTARIO ***
                ***ONTARIO***

CITY           SKY/WX    TMP DP  RH WIND       PRES   REMARKS
GERALDTON      MOSUNNY   28  19  69 VRB2      30.11R
THUNDER BAY    PTSUNNY   36  16  44 VRB2      30.08R
SIOUX LOOKOUT  PTSUNNY   34  19  55 SE5       30.05R
TORONTO        MOSUNNY   37  23  56 N7        29.98F
BIG TROUT LK   SUNNY     21  16  79 E3        30.18
PICKLE LAKE    MOSUNNY   27  18  69 E5        30.11R WCI  21
DRYDEN         CLOUDY    36  27  69 E6        30.02R
KENORA         PTSUNNY   39  21  48 E9        29.98R
$$
                *** MANITOBA***

CITY           SKY/WX    TMP DP  RH WIND       PRES   REMARKS
BRANDON        MOSUNNY   36  32  87 E7        29.91R
DAUPHIN        MOSUNNY   37  32  81 SE7       29.93R
ISLAND LAKE    SUNNY     28  14  54 SE9       30.08R WCI  20
PILOT MOUND      N/A     36  32  87 E8          N/A
THE PAS        LGT SNOW  27  25  93 N6        30.01R FOG     WCI  20
THOMPSON       LGT SNOW  25  23  93 NE5       30.06R WCI  19
WINNIPEG       PTSUNNY   39  28  65 E8        29.95R
LYNN LAKE      SUNNY     19  12  73 N3        30.10R
GILLAM         CLOUDY    23  18  80 NE6       30.16R WCI  16
$$
                ***SASKATCHEWAN***

CITY           SKY/WX    TMP DP  RH WIND       PRES   REMARKS
ESTEVAN        CLOUDY    41  39  93 E16G22    29.78R FOG
KINDERSLEY     CLOUDY    30  28  93 NE22      29.78R WCI  17
LLOYDMINSTER   CLOUDY    30  23  74 NE15G25   29.89R WCI  19
PRINCE ALBERT  CLOUDY    27  21  80 NE14      29.97R WCI  15
REGINA         LGT RAIN  45  43  93 E20       29.74R FOG
YORKTON        LGT RAIN  43  37  81 E9        29.86R
N. BATTLEFORD  CLOUDY    28  25  86 E13G18    29.92R WCI  18


USA.gov is the U.S. government's official web portal to all federal, state and local government web resources and services.